Wind_Speed
30 31 32 32 33 32 31 30 29 27 25 24 24 23 23 22 23 23 24 25 25 26 26 26 27 27 28 28 29 29 29 30 30 30 30 29 29 30
31 31 32 33 33 31 30 29 27 25 24 23 22 22 22 22 22 22 23 23 23 24 24 25 25 26 27 28 29 29 30 30 30 31 30 30 30 30
31 32 32 31 29 28 27 25 24 23 22 22 21 21 21 21 21 21 22 22 23 22 23 23 25 26 26 27 28 29 29 30 31 31 31 30 30 30
24 25 25 24 24 24 23 23 22 21 21 20 20 20 20 20 20 21 21 22 23 23 23 23 24 25 26 26 26 27 28 28 29 29 30 30 31 31
19 19 19 19 20 20 20 21 20 20 20 20 20 20 20 20 20 20 21 22 22 23 24 24 24 24 25 25 25 25 26 27 27 27 28 29 30 31
17 17 18 18 19 20 20 20 19 19 19 19 19 19 19 19 20 20 20 20 21 22 23 24 24 24 25 24 24 25 25 25 26 26 27 28 29 30
16 17 17 17 18 18 18 19 19 19 19 19 19 19 19 19 19 19 19 19 19 20 21 21 24 25 26 25 24 25 25 25 26 27 27 28 29 29
18 18 18 18 18 18 18 18 18 18 18 18 19 19 19 19 19 19 19 18 19 19 19 20 21 22 23 23 24 25 26 26 26 27 28 29 30 30
20 19 19 19 19 18 18 18 18 18 18 17 17 17 17 17 18 18 18 18 18 17 17 17 18 19 20 21 23 25 26 28 30 31 31 32 34 35
21 21 20 20 19 19 18 18 18 17 17 17 16 16 16 16 17 17 17 17 18 18 17 18 18 19 19 19 21 24 27 29 31 32 33 34 35 36
22 22 22 21 20 19 18 17 17 17 16 16 15 15 15 15 15 15 16 16 17 17 17 18 18 19 19 20 21 23 24 26 28 30 32 34 36 38
22 22 21 21 20 19 18 17 17 16 15 14 14 14 13 13 13 13 14 14 15 14 15 16 17 18 19 20 22 23 25 27 29 31 32 34 36 37
19 19 19 18 17 17 16 16 16 15 13 12 11 11 10 10 10 11 11 12 12 12 13 14 15 16 18 19 21 23 25 27 29 31 33 34 36 38
14 15 15 14 14 14 14 14 13 12 11 10 9 9 8 7 8 8 8 9 10 11 12 12 14 15 17 19 21 23 25 28 30 31 33 34 36 38
7 9 10 10 10 11 10 10 10 9 8 7 7 6 5 5 5 6 6 7 8 9 10 11 12 14 16 18 21 23 25 27 29 30 31 33 34 36
4 6 7 8 8 8 8 8 7 7 6 5 4 3 3 3 4 4 5 6 7 8 9 10 12 14 16 18 20 22 24 26 27 28 30 31 33 34
7 7 7 7 7 7 7 7 7 6 5 4 3 2 2 1 1 1 3 5 6 8 9 11 12 14 17 19 21 23 25 26 27 28 29 30 31 32
12 11 10 8 8 9 9 8 7 6 4 3 3 3 2 2 2 3 4 6 7 9 10 12 14 16 18 20 22 24 25 26 27 27 28 28 28 29
17 16 14 13 12 11 10 9 8 7 7 6 6 6 6 5 5 5 6 7 9 10 12 13 15 17 19 21 23 25 27 27 28 28 28 28 28 27
19 18 17 16 15 14 13 12 12 11 10 10 9 9 8 7 7 7 8 9 10 11 13 14 16 18 20 22 23 25 27 28 29 29 29 29 29 28
20 20 19 18 17 16 15 14 13 13 12 11 10 10 9 8 8 8 9 9 10 12 13 15 16 18 20 21 23 25 27 28 29 30 31 31 31 30
20 19 19 18 18 17 16 15 14 13 12 12 11 10 9 9 9 9 9 10 11 12 13 14 16 18 19 21 22 24 26 28 29 30 31 32 32 32
19 18 17 16 16 15 15 14 13 13 12 12 11 11 10 9 9 10 10 11 11 12 13 15 16 17 19 20 22 23 25 26 28 29 30 31 31 31
Wind_Direction
259 257 255 254 253 252 253 256 259 260 261 264 267 269 270 271 272 274 275 274 271 268 266 262 259 258 255 253 252 252 251 252 253 254 255 256 258 258
258 258 255 251 250 251 253 255 257 258 259 261 263 265 265 268 271 273 273 272 271 269 265 261 259 258 256 255 253 252 253 253 254 255 256 257 258 259
259 255 252 250 250 251 253 254 256 257 258 260 260 261 262 266 271 271 271 270 270 268 266 261 260 260 259 256 254 254 253 254 255 256 256 257 258 259
255 252 249 247 250 252 253 254 255 257 257 258 259 259 261 264 268 270 271 270 269 268 265 263 262 260 259 257 256 256 255 256 257 258 258 258 259 260
250 249 247 247 249 251 252 254 256 257 258 260 260 260 262 265 266 270 273 270 269 268 264 263 261 260 259 257 257 259 259 259 261 261 261 261 261 261
246 248 248 249 250 251 253 256 258 259 260 261 262 262 264 266 267 269 272 271 271 268 267 264 260 259 259 257 258 260 262 263 263 264 264 263 263 262
248 250 251 252 252 253 255 257 259 260 261 262 264 264 265 266 267 269 272 272 273 271 270 268 265 262 260 256 255 257 261 263 264 266 266 266 265 265
255 254 255 256 256 257 258 258 259 261 263 265 266 266 267 267 267 268 271 272 272 274 274 270 268 265 263 256 256 256 259 262 264 266 267 267 268 268
257 259 259 258 259 260 260 259 261 262 264 267 268 269 269 269 269 270 270 270 272 273 275 272 270 268 264 260 258 258 261 263 264 265 266 267 268 269
259 258 258 258 259 259 259 259 260 262 264 266 268 270 271 271 270 271 272 271 270 270 273 274 272 273 272 270 268 267 267 267 269 268 268 269 270 270
260 259 258 257 255 255 255 255 256 258 261 263 266 268 269 270 270 271 272 272 272 271 271 273 274 276 278 277 276 277 278 277 276 275 273 273 273 272
259 256 255 255 253 252 251 252 255 256 258 260 263 264 266 268 269 271 273 274 275 276 276 277 279 281 282 282 282 283 283 282 282 281 279 276 275 274
253 251 250 249 247 246 246 247 249 251 254 256 257 260 261 264 269 273 277 280 281 283 285 286 288 289 290 291 292 292 290 288 287 285 285 282 280 278
249 243 241 241 239 239 239 239 240 242 246 245 249 253 257 264 269 275 282 288 291 292 293 295 298 299 301 301 300 300 299 296 293 291 288 286 284 281
235 225 221 221 222 224 224 224 225 225 230 234 240 243 252 263 272 283 293 299 305 308 310 311 313 315 316 314 313 311 309 306 302 299 296 292 289 287
167 181 189 196 200 202 203 203 202 202 206 213 219 231 246 264 281 294 309 319 326 332 334 334 331 330 328 327 325 323 322 319 315 310 305 301 297 294
108 127 143 155 166 171 173 171 172 178 184 191 204 219 235 263 312 346 345 347 350 352 350 349 347 346 343 340 338 336 335 332 327 322 317 312 307 303
94 103 111 121 130 137 143 147 149 147 143 136 132 126 114 91 61 32 19 14 10 7 5 2 0 358 356 354 352 349 347 344 341 337 333 327 322 316
86 92 97 102 109 116 121 122 122 119 112 106 101 95 89 82 72 59 45 31 22 15 11 10 9 8 7 5 3 0 358 355 353 351 347 343 338 333
81 85 90 94 98 101 102 102 102 100 97 95 91 87 82 76 67 55 43 33 26 22 19 17 15 13 12 11 9 6 5 4 3 2 360 357 355 351
78 80 83 86 89 90 92 93 93 92 89 86 83 80 75 67 59 50 40 32 27 23 20 18 17 16 15 12 11 10 10 9 9 9 9 8 7 5
73 76 78 80 82 83 84 84 83 81 80 78 76 72 67 60 53 45 38 32 28 24 20 17 15 13 13 12 11 11 11 11 12 12 12 13 12 12
68 71 73 75 75 75 75 75 74 73 71 70 68 65 61 55 49 44 38 32 27 22 18 15 13 11 10 9 9 9 9 10 11 12 12 12 13 13
Height
5821 5822 5824 5826 5828 5829 5831 5832 5833 5834 5835 5835 5835 5834 5834 5833 5833 5831 5831 5830 5829 5829 5829 5829 5830 5830 5831 5832 5833 5834 5835 5836 5837 5838 5839 5839 5840 5841
5813 5815 5816 5818 5820 5821 5823 5824 5825 5827 5827 5828 5828 5828 5827 5827 5826 5825 5824 5824 5823 5823 5823 5823 5824 5824 5825 5826 5826 5827 5828 5829 5830 5831 5832 5832 5833 5833
5805 5807 5808 5810 5812 5814 5815 5817 5818 5820 5821 5821 5822 5821 5821 5821 5820 5819 5818 5818 5817 5817 5817 5817 5818 5818 5819 5819 5820 5821 5822 5823 5824 5825 5825 5826 5826 5826
5798 5800 5801 5803 5805 5807 5809 5810 5812 5813 5814 5815 5815 5815 5815 5815 5814 5814 5813 5812 5812 5812 5812 5812 5812 5812 5813 5813 5814 5814 5815 5816 5817 5817 5818 5818 5818 5819
5793 5794 5796 5797 5799 5801 5803 5804 5806 5807 5808 5808 5809 5809 5809 5809 5809 5808 5807 5807 5806 5806 5806 5806 5806 5806 5806 5807 5808 5808 5809 5810 5810 5811 5811 5811 5811 5811
5788 5789 5791 5792 5794 5796 5797 5799 5800 5801 5802 5802 5803 5803 5803 5803 5803 5803 5802 5801 5801 5801 5800 5800 5800 5800 5800 5801 5801 5802 5802 5803 5803 5804 5804 5804 5804 5803
5783 5785 5786 5787 5788 5790 5792 5793 5794 5795 5796 5796 5797 5797 5798 5798 5798 5797 5797 5797 5796 5796 5795 5795 5794 5794 5794 5794 5795 5796 5796 5796 5797 5797 5797 5797 5796 5796
5779 5779 5781 5782 5783 5785 5786 5787 5788 5789 5790 5791 5792 5792 5792 5792 5792 5792 5792 5792 5791 5791 5790 5789 5789 5788 5788 5788 5789 5789 5789 5790 5790 5790 5789 5789 5789 5788
5773 5774 5775 5776 5778 5779 5780 5782 5783 5784 5785 5786 5787 5787 5787 5787 5788 5787 5787 5787 5786 5785 5785 5784 5784 5783 5783 5782 5782 5783 5783 5783 5783 5782 5782 5781 5780 5780
5767 5768 5769 5770 5772 5774 5775 5777 5778 5779 5780 5781 5782 5782 5783 5783 5783 5783 5783 5782 5782 5781 5781 5780 5780 5779 5778 5777 5777 5776 5776 5775 5775 5774 5773 5772 5771 5770
5760 5761 5763 5764 5766 5768 5770 5772 5773 5774 5776 5777 5777 5778 5778 5779 5778 5778 5778 5778 5777 5777 5776 5776 5775 5774 5773 5772 5771 5770 5769 5768 5767 5766 5764 5763 5761 5760
5753 5755 5756 5758 5761 5763 5765 5767 5769 5770 5772 5773 5773 5774 5774 5775 5775 5775 5774 5774 5773 5772 5772 5771 5770 5769 5769 5767 5766 5764 5763 5761 5759 5757 5755 5753 5751 5749
5746 5748 5750 5753 5756 5758 5760 5762 5764 5766 5768 5769 5770 5771 5771 5772 5772 5771 5771 5770 5770 5769 5768 5767 5766 5765 5764 5762 5760 5758 5756 5753 5751 5748 5745 5742 5740 5737
5740 5743 5745 5748 5751 5754 5756 5758 5761 5763 5765 5766 5767 5768 5768 5769 5769 5769 5768 5768 5767 5766 5765 5764 5763 5761 5759 5757 5755 5752 5749 5746 5742 5739 5736 5732 5729 5726
5737 5739 5742 5745 5748 5751 5753 5756 5758 5760 5762 5764 5765 5766 5766 5767 5767 5767 5766 5766 5765 5764 5763 5761 5760 5758 5755 5753 5749 5746 5742 5738 5734 5730 5726 5722 5718 5714
5736 5739 5741 5744 5747 5750 5752 5755 5757 5759 5761 5762 5763 5764 5765 5765 5765 5765 5765 5764 5763 5762 5761 5759 5757 5754 5752 5748 5744 5740 5736 5731 5726 5722 5717 5713 5708 5704
5739 5741 5743 5745 5747 5750 5752 5755 5757 5759 5760 5761 5762 5763 5764 5764 5764 5764 5764 5763 5762 5761 5759 5757 5754 5752 5748 5745 5740 5736 5731 5726 5720 5715 5709 5704 5699 5694
5743 5744 5746 5747 5749 5751 5753 5755 5757 5759 5760 5761 5762 5762 5763 5763 5764 5763 5763 5762 5761 5760 5758 5756 5753 5750 5746 5742 5737 5732 5727 5721 5715 5709 5703 5697 5692 5686
5749 5749 5750 5751 5752 5754 5756 5757 5758 5760 5761 5762 5762 5763 5763 5763 5764 5764 5763 5762 5761 5759 5757 5754 5751 5748 5744 5740 5735 5729 5724 5718 5712 5706 5699 5693 5686 5680
5755 5755 5756 5756 5757 5758 5759 5760 5761 5762 5763 5763 5764 5764 5764 5765 5764 5764 5763 5762 5761 5759 5757 5754 5751 5747 5743 5739 5734 5729 5723 5717 5711 5704 5697 5691 5684 5677
5763 5762 5762 5762 5763 5763 5763 5764 5765 5765 5765 5766 5766 5766 5766 5766 5765 5765 5764 5763 5761 5759 5757 5754 5751 5747 5743 5739 5735 5729 5723 5717 5711 5704 5697 5690 5683 5676
5770 5769 5769 5768 5768 5768 5768 5768 5768 5768 5769 5768 5768 5768 5768 5767 5766 5766 5764 5763 5761 5759 5757 5754 5751 5748 5744 5740 5735 5730 5724 5718 5712 5705 5698 5691 5684 5677
5776 5775 5774 5774 5773 5773 5773 5772 5772 5772 5771 5771 5771 5770 5769 5768 5767 5766 5765 5763 5761 5759 5757 5754 5751 5748 5744 5739 5735 5730 5725 5719 5713 5706 5700 5693 5687 5680